sat.trackr.live / text

‹ back to catalog

STARLINK-32813

NORAD 62869 · 2025-022R

PAYLOAD ACTIVE UNKNOWN

§ Identity

Operator
Country
US
Launch date
2025-02-01
Launch site
AFWTR
Launch vehicle
Mass (kg)
RCS (m²)

Purposes: comms

External: N2YO · Heavens-Above · Gunter

§ Orbital elements

Epoch: 2026-05-25T03:35:44.136960Z

Period
94.10 min
Inclination
53.1580°
Eccentricity
0.0001824
Mean motion
15.30213396 rev/d
Perigee alt
473.9 km
Apogee alt
476.4 km
Semi-major
6,853.3 km
B*
5.0523e-4
RAAN
134.6746°
Arg perigee
32.3411°
Mean anomaly
327.7701°
Rev number
7,360

§ Raw data

STARLINK-328131 62869U 25022R   26145.14981640  .00014640  00000+0  50523-3 0  99952 62869  53.1580 134.6746 0001824  32.3411 327.7701 15.30213396 73601

JSON: /api/v1/satellites/62869 · /tle

For live sub-satellite position, see the globe view (requires WebGL).

§ Visibility from observer

Set your observer location to see the next 7 days of passes ≥ 10°. The values pass through the URL so the page stays shareable.

No JS? Fill the form by hand. The geolocation button needs JavaScript.